Simultaneous Nadir Overpasses (SNOs) Predictions

Prediction of SNOs between AQUA and NPP Satellite Orbit:

Table of predicted SNOs for the next 14.0 days since TLE Epoch: 7/17/2021
Index Date (AQUA) Time (AQUA) Lat,Lon (AQUA) SZA (AQUA ) Date (NPP) Time (NPP) Lat,Lon (NPP) SZA (NPP ) Distance(km) Time Diff (sec)
1 07/17/2021 06:21:29 76.10, -36.07 76.72 07/17/2021 06:21:45 76.10, -36.04 76.70 0.91 16
2 07/19/2021 21:48:50 -75.26, -90.28 101.84 07/19/2021 21:48:16 -75.26, -90.29 101.81 0.22 34
3 07/19/2021 22:37:54 76.34, 80.57 76.91 07/19/2021 22:38:37 76.34, 80.55 76.88 0.56 43
4 07/22/2021 14:05:14 -75.56, 26.42 101.66 07/22/2021 14:05:07 -75.55, 26.36 101.64 1.70 7
5 07/22/2021 14:54:19 76.57,-162.78 77.15 07/22/2021 14:55:29 76.56,-162.84 77.11 1.67 70
6 07/25/2021 05:32:25 75.13, -26.53 79.38 07/25/2021 05:31:27 75.14, -26.44 79.41 2.73 58
7 07/25/2021 06:21:38 -75.84, 143.13 101.45 07/25/2021 06:21:58 -75.83, 143.04 101.44 2.82 20
8 07/27/2021 21:48:47 75.46, 90.26 79.58 07/27/2021 21:48:16 75.47, 90.32 79.59 1.91 31
9 07/27/2021 22:37:52 -76.56, -98.71 101.71 07/27/2021 22:38:38 -76.56, -98.63 101.77 2.38 46
10 07/30/2021 13:21:31 -56.54, 16.02 80.26 07/30/2021 13:20:18 -56.78, 14.67 79.98 86.55 73
11 07/30/2021 14:05:09 75.84,-152.77 79.76 07/30/2021 14:05:05 75.84,-152.72 79.75 1.49 4



Historial Predications of SNOs between AQUA and NPP
